Location: Guilderland
(42.7045°N, 73.9115°W)
Time: 07:17:09
(UTC+00:00)

Cosmos 2366 rocket - Pass Details

Date: 24 January 2020
Orbit: 956 x 996 km, 82.9° (Epoch: 17 February)

Event Time Altitude Azimuth Distance (km) Brightness Sun altitude
Rises 23:39:44 0° 194° (SSW) 3,641 7.3 -18.6°
Reaches altitude 10° 23:42:14 10° 197° (SSW) 2,703 6.6 -19.1°
Maximum altitude 23:48:23 67° 279° (W) 1,055 4.3 -20.2°
Drops below altitude 10° 23:54:40 10° 3° (N) 2,749 6.3 -21.3°
Sets 23:57:14 0° 6° (N) 3,707 6.9 -21.8°
